EW1736 Weather Reports


Display with metric or nautical units.
time (UTC)temp
F
wind
direction
speed
MPH
gust
MPH
rain 1hr
in
rain 24hr
in
rain mn
in
humidity
%
barometer
mb
20260905015044 63 250 8.0 18.0 0.00 0.02 0.00 55 1017.6
20260905013542 63 246 13.0 21.0 0.00 0.02 0.00 54 1017.8
20260905012736 65 232 11.0 16.0 0.00 0.02 0.00 50 1017.8
20260905010536 64 233 11.0 19.0 0.00 0.02 0.00 51 1017.9
20260905005725 64 233 11.0 20.0 0.00 0.02 0.00 53 1018.1
20260905003532 64 213 13.0 18.0 0.00 0.02 0.00 53 1018.1
20260905002723 64 217 9.0 18.0 0.00 0.02 0.00 54 1018.2
20260905000528 63 242 11.0 18.0 0.00 0.02 0.00 53 1018.3
20260904235720 63 241 13.0 23.0 0.00 0.02 0.00 52 1018.4
20260904233524 63 224 11.0 20.0 0.00 0.02 0.00 52 1018.6
20260904232709 63 239 9.0 16.0 0.00 0.02 0.00 50 1018.6
20260904230515 63 210 9.0 16.0 0.00 0.02 0.00 49 1018.6
20260904225015 63 269 6.0 15.0 0.00 0.02 0.00 48 1018.4
20260904224219 63 191 3.0 9.0 0.00 0.02 0.00 53 1018.4
20260904222011 62 296 3.0 16.0 0.00 0.02 0.00 52 1018.3
20260904220507 62 250 13.0 16.0 0.00 0.02 0.00 53 1018.5
20260904215003 61 252 7.0 23.0 0.00 0.02 0.00 55 1018.3
20260904214200 60 237 18.0 32.0 0.00 0.02 0.00 59 1017.9
20260904211954 59 231 21.0 31.0 0.00 0.02 0.00 63 1017.8
20260904211157 58 269 20.0 31.0 0.00 0.02 0.00 66 1017.8
20260904204945 57 229 26.0 39.0 0.00 0.02 0.00 69 1017.5
20260904203446 56 228 24.0 33.0 0.00 0.02 0.00 70 1017.4
20260904201941 56 239 27.0 35.0 0.00 0.02 0.00 69 1017.5
20260904200441 55 232 22.0 33.0 0.00 0.02 0.00 71 1017.7
20260904194937 54 221 21.0 32.0 0.00 0.02 0.00 73 1017.7
20260904193438 54 246 23.0 34.0 0.00 0.02 0.00 75 1017.6
20260904191935 53 236 22.0 33.0 0.00 0.02 0.00 76 1017.6
20260904190434 52 250 23.0 30.0 0.00 0.02 0.00 77 1017.4
20260904184929 52 257 21.0 30.0 0.00 0.02 0.00 77 1017.2
20260904183425 52 242 19.0 26.0 0.00 0.02 0.00 77 1017.4
20260904182619 52 240 16.0 18.0 0.00 0.02 0.00 77 1017.5
20260904181125 52 250 15.0 18.0 0.00 0.02 0.00 76 1017.6
20260904175619 53 242 14.0 19.0 0.00 0.02 0.00 75 1017.6
20260904173417 53 247 15.0 18.0 0.00 0.02 0.00 75 1017.4
20260904171912 53 258 13.0 17.0 0.00 0.02 0.00 75 1017.4
20260904170413 53 251 11.0 14.0 0.00 0.02 0.00 74 1017.4
20260904164909 53 252 11.0 13.0 0.00 0.02 0.00 73 1017.2
20260904163404 53 254 9.0 12.0 0.00 0.02 0.00 72 1017.2
20260904161900 54 263 10.0 12.0 0.00 0.02 0.00 70 1016.9
20260904160357 55 257 10.0 20.0 0.00 0.02 0.00 68 1016.6
20260904155546 55 231 10.0 14.0 0.00 0.02 0.00 67 1016.4
20260904153354 55 236 8.0 14.0 0.00 0.02 0.00 66 1016.2
20260904151848 55 250 8.0 13.0 0.00 0.02 0.00 67 1016.4
20260904150348 55 269 4.0 13.0 0.00 0.02 0.00 68 1016.5
20260904144844 54 0 4.0 7.0 0.00 0.02 0.00 71 1016.2
20260904143340 54 279 3.0 8.0 0.00 0.02 0.00 72 1016.1
20260904141840 54 310 3.0 5.0 0.00 0.02 0.00 73 1016.0
20260904140336 55 332 3.0 11.0 0.00 0.02 0.00 72 1015.9
20260904134836 55 302 4.0 9.0 0.00 0.04 0.00 72 1015.9
20260904133343 56 296 4.0 11.0 0.00 0.04 0.00 71 1016.0
20260904132540 56 18 4.0 16.0 0.00 0.04 0.00 70 1015.8
20260904130329 56 263 5.0 16.0 0.00 0.04 0.00 71 1015.7
20260904124823 56 255 8.0 12.0 0.00 0.04 0.00 72 1015.4
20260904123320 56 298 4.0 15.0 0.00 0.04 0.00 71 1015.2
20260904121816 56 265 4.0 15.0 0.00 0.04 0.00 71 1015.0
20260904121011 56 261 9.0 18.0 0.00 0.04 0.00 71 1014.8
20260904114811 56 271 11.0 23.0 0.00 0.04 0.04 70 1014.6
20260904113307 57 0 18.0 26.0 0.00 0.05 0.04 69 1014.5
20260904111807 56 234 15.0 22.0 0.00 0.05 0.04 70 1014.4
20260904110303 56 221 15.0 19.0 0.00 0.05 0.04 71 1014.2
20260904104803 56 225 13.0 18.0 0.00 0.05 0.04 70 1014.3
20260904103259 56 227 10.0 19.0 0.00 0.06 0.04 71 1014.3
20260904101755 56 257 12.0 19.0 0.00 0.06 0.04 71 1014.2
20260904100255 56 240 16.0 22.0 0.00 0.06 0.04 71 1014.1
20260904094751 56 208 12.0 18.0 0.00 0.06 0.04 70 1014.1
20260904093247 57 242 17.0 24.0 0.00 0.06 0.04 69 1013.7
20260904091747 57 284 16.0 23.0 0.00 0.06 0.04 71 1013.5
20260904090242 57 248 17.0 23.0 0.00 0.06 0.04 71 1013.3
20260904085437 57 244 15.0 23.0 0.00 0.06 0.04 72 1013.2
20260904083240 58 224 19.0 23.0 0.00 0.06 0.04 74 1012.9
20260904081734 58 247 17.0 27.0 0.00 0.06 0.04 74 1012.6
20260904080236 58 246 16.0 27.0 0.00 0.06 0.04 74 1012.4
20260904074732 58 262 23.0 28.0 0.00 0.06 0.04 73 1011.9
20260904073227 59 238 21.0 26.0 0.00 0.06 0.04 73 1011.8
20260904071723 60 277 12.0 18.0 0.00 0.06 0.04 75 1011.9
20260904070218 60 273 12.0 21.0 0.00 0.06 0.04 74 1011.9
20260904064718 60 294 13.0 21.0 0.00 0.06 0.04 76 1011.7
20260904063214 61 253 15.0 29.0 0.02 0.06 0.04 78 1011.1
20260904061716 61 266 11.0 16.0 0.02 0.06 0.04 81 1010.9
20260904060216 61 250 11.0 22.0 0.02 0.06 0.04 81 1010.8
20260904054710 61 243 18.0 24.0 0.02 0.06 0.04 82 1010.5
20260904053211 62 282 14.0 21.0 0.00 0.04 0.02 81 1010.3
20260904052355 62 255 11.0 16.0 0.00 0.04 0.02 79 1010.2
20260904050209 63 273 8.0 18.0 0.00 0.04 0.02 78 1009.9
20260904044658 62 279 10.0 18.0 0.00 0.04 0.02 77 1009.8
20260904043159 63 293 13.0 25.0 0.00 0.04 0.02 76 1009.8
20260904041654 63 297 13.0 24.0 0.00 0.04 0.02 74 1009.9
20260904040155 63 298 12.0 24.0 0.00 0.04 0.02 74 1010.2
20260904034652 63 0 13.0 18.0 0.00 0.04 0.02 75 1010.6
20260904033152 63 288 10.0 25.0 0.00 0.04 0.02 75 1010.7
20260904031647 62 285 16.0 25.0 0.00 0.04 0.02 75 1011.0
20260904030147 62 277 14.0 24.0 0.00 0.04 0.02 76 1011.0
20260904024637 62 316 11.0 18.0 0.00 0.04 0.02 76 1011.2
20260904023844 62 273 12.0 20.0 0.00 0.04 0.02 75 1011.2
20260904021634 62 271 11.0 17.0 0.00 0.04 0.02 75 1011.4
20260904020139 62 273 9.0 14.0 0.00 0.04 0.02 74 1011.4